Weather in Zakharyino

Russia / Novgorod Oblast     58°47′43″N   31°33′51″E
temp.,
°C
wind,
m/s
gust,
m/s
humid.,
%
clouds,
%
prec.,
mm/h
press.,
hPa
HPBL,
m
7 march, sun
sun700:00−2sw71594100 1.9 9951127
03:00−1sw71594100 3.3 9911134
06:00−3wnw71388100 1.6 9891163
09:00−6w6146172 1.6 9901676
12:00−4w7115833 0.2 9902057
15:00−4wnw7115553 0.5 9911871
18:00−6nw497195 0.1 992968
21:00−7wnw5137493 0.1 993827
8 march, mon
mon800:00−7nw61283100 0.0 9941001
03:00−8nnw51186100 0.1 998869
06:00−9n51187100 0.1 1001744
09:00−10n51084100 0.2 1005724
12:00−9n5977100 0.0 1007709
15:00−8n5974100 0.1 1010704
18:00−10n497924 0.0 1012615
21:00−13n389040 0.0 1015457
9 march, tue
tue900:00−14n269478 0.0 1016288
03:00−15n259665 0.0 1017242
06:00−16n139684 0.0 1019192
09:00−16nne138886 0.0 1020291
12:00−12nne226551 0.0 1020558
15:00−10ne225526 0.0 1021718
18:00−11ene246774 0.0 1020369
21:00−14e368187 0.0 1022285
10 march, wed
wed1000:00−15e3783100 0.0 1022304
03:00−16e378586 0.0 1023256
06:00−17e37810 0.0 1024251
09:00−16e36730 0.0 1025241
12:00−11e356317 0.0 1025382
15:00−8e355756 0.0 1025728
18:00−10e3772100 0.0 1025373
21:00−12ese398198 0.0 1025316
11 march, thu
thu1100:00−14ese398483 0.0 1024287
03:00−15ese398445 0.0 1023284
06:00−15ese310810 0.0 1021354
09:00−13ese488431 0.0 1019423
12:00−9se488199 0.1 1017543
15:00−5sse488099 0.1 1013606
18:00−4se41190100 0.1 1010606
21:00−3sse51485100 0.3 1006776